Home   Weather   Sankt Ingbert   Past weeks

Flag for Germany Past Weather in Sankt Ingbert, Saarland, Germany — Yesterday and Last 2 Weeks

Now
39 °F

Passing clouds.


Feels Like: 36 °F
Forecast: 28 / 40 °F
Wind: 5 mph from West

Location: Saarbruecken / Ensheim

Current Time: Dec 8, 2016 at 3:30:48 pm

Latest Report: Dec 8, 2016 at 2:50 pm


Visibility: N/A

Pressure: 30.45 "Hg

Humidity: 81%

Dew Point: 34 °F

Location of Sankt IngbertLocation

Past Weather in Sankt Ingbert — Graph

°F

Sankt Ingbert Temperature Yesterday

Maximum temperature yesterday: 30 °F (at 1:20 pm)
Minimum temperature yesterday: 25 °F (at 1:50 am)
Average temperature yesterday: 27 °F

High & Low Weather Summary for the Past Weeks

 TemperatureHumidityPressure
High54 °F (Nov 23, 2:20 pm)100% (Nov 27, 2:50 am)30.54 "Hg (Nov 27, 2:50 am)
Low19 °F (Nov 30, 6:50 am)48% (Nov 29, 1:20 pm)29.92 "Hg (Nov 24, 6:50 am)
Average35 °F85%30.25 "Hg
* Reported Nov 23 2:20 pm — Dec 8 2:20 pm, Sankt Ingbert, Weather by CustomWeather, © 2016

Note: Actual official high and low records may vary slightly from our data, if they occured in-between our weather recording intervals... More about our weather records

Advertising

Sankt Ingbert Weather History for the Previous 24 Hours

Scroll right to see more
 ConditionsComfort  
Time TempWeatherWind HumidityBarometerVisibility
2:20 pm
Thu, Dec 8
39 °FPassing clouds.6 mph81%30.45 "HgN/A
1:50 pm37 °FSunny.2 mph81%30.45 "Hg10 mi
1:20 pm37 °FPassing clouds.6 mph81%30.45 "HgN/A
12:50 pm36 °FPassing clouds.6 mph87%30.48 "HgN/A
12:20 pm36 °FPassing clouds.6 mph87%30.48 "HgN/A
11:50 am36 °FPassing clouds.7 mph87%30.48 "HgN/A
11:20 am32 °FPassing clouds.5 mph93%30.51 "HgN/A
10:50 am32 °FSunny.2 mph93%30.51 "Hg10 mi
10:20 am30 °FSunny.1 mph100%30.51 "Hg10 mi
9:50 am28 °FClear.1 mph100%30.51 "Hg6 mi
9:20 am27 °FClear.1 mph100%30.51 "Hg5 mi
8:50 am27 °FScattered clouds.2 mph93%30.51 "Hg4 mi
8:20 am25 °FScattered clouds.1 mph93%30.51 "Hg4 mi
7:50 am25 °FIce fog.2 mph93%30.51 "Hg3 mi
7:20 am25 °FIce fog.3 mph93%30.51 "Hg2 mi
6:50 am25 °FLight fog.2 mph93%30.51 "Hg1 mi
6:20 am23 °FIce fog.1 mph100%30.51 "Hg2 mi
5:50 am25 °FIce fog.2 mph93%30.51 "Hg3 mi
5:20 am23 °FIce fog.No wind100%30.51 "Hg3 mi
4:50 am25 °FIce fog.1 mph93%30.51 "Hg3 mi
4:20 am25 °FIce fog.No wind93%30.51 "Hg1 mi
3:50 am25 °FIce fog.1 mph100%30.51 "Hg1 mi
3:20 am25 °FClear.2 mph100%30.51 "Hg1 mi
2:50 am27 °FPassing clouds.1 mph93%30.51 "Hg2 mi
2:20 am27 °FPassing clouds.2 mph93%30.51 "Hg1 mi
1:50 am27 °FLow clouds.1 mph100%30.54 "Hg0 mi
1:20 am27 °FLow clouds.2 mph100%30.51 "Hg0 mi
12:50 am28 °FLow clouds.1 mph93%30.54 "Hg0 mi
12:20 am28 °FLow clouds.1 mph93%30.54 "Hg0 mi
11:50 pm
Wed, Dec 7
28 °FLow clouds.1 mph93%30.54 "Hg1 mi
11:20 pm28 °FLow clouds.2 mph100%30.54 "Hg1 mi
10:50 pm28 °FIce fog.1 mph100%30.54 "Hg1 mi
10:20 pm28 °FIce fog.2 mph100%30.54 "Hg0 mi
9:50 pm28 °FIce fog.1 mph100%30.54 "Hg0 mi
9:20 pm28 °FIce fog.1 mph100%30.54 "Hg1 mi
8:50 pm28 °FIce fog.1 mph100%30.54 "Hg0 mi
8:20 pm28 °FIce fog.2 mph100%30.54 "Hg1 mi
7:50 pm28 °FIce fog.2 mph100%30.54 "Hg0 mi
7:20 pm28 °FIce fog.1 mph100%30.54 "Hg0 mi
6:50 pm28 °FIce fog.3 mph100%30.54 "Hg0 mi
6:20 pm28 °FIce fog.1 mph100%30.54 "Hg0 mi
5:50 pm28 °FIce fog.2 mph100%30.51 "Hg0 mi
5:20 pm28 °FIce fog.1 mph100%30.51 "Hg0 mi
4:50 pm30 °FIce fog.1 mph93%30.51 "Hg0 mi
4:20 pm28 °FIce fog.1 mph100%30.51 "Hg0 mi
3:20 pm30 °FIce fog.2 mph93%30.51 "Hg1 mi
Weather by CustomWeather, © 2016

See weather overviewHow to use our weather pages